This is the latest recevied weather packets stored in our database for station/object PY2UTU-WX. If no packets are shown the sender has not sent any weather packets the latest 10 day(s).
| Time | Temp. | Humidity | Pressure | Rain* | Wind** | Luminosity | Snow |
|---|---|---|---|---|---|---|---|
| 1777426041 | 21.11° C | 98% | 923.9 hPa | - | - | - | - |
| 1777425140 | 21.67° C | 98% | 924 hPa | - | - | - | - |
| 1777424240 | 21.11° C | 98% | 924 hPa | - | - | - | - |
| 1777423340 | 21.11° C | 98% | 923.9 hPa | - | - | - | - |
| 1777422440 | 22.78° C | 98% | 923.8 hPa | - | - | - | - |
| 1777421540 | 21.67° C | 98% | 923.7 hPa | - | - | - | - |
| 1777420641 | 22.78° C | 98% | 923.6 hPa | - | - | - | - |
| 1777419740 | 23.33° C | 98% | 923.6 hPa | - | - | - | - |
| 1777418840 | 23.89° C | 98% | 923.6 hPa | - | - | - | - |
| 1777417940 | 23.33° C | 98% | 923.7 hPa | - | - | - | - |
| 1777417041 | 21.67° C | 98% | 923.7 hPa | - | - | - | - |
| 1777416140 | 21.67° C | 98% | 923.5 hPa | - | - | - | - |
| 1777415240 | 20.56° C | 98% | 923.8 hPa | - | - | - | - |
| 1777414340 | 22.22° C | 98% | 923.5 hPa | - | - | - | - |
| 1777413440 | 23.33° C | 98% | 923.5 hPa | - | - | - | - |
| 1777412540 | 23.89° C | 98% | 923.4 hPa | - | - | - | - |
| 1777411641 | 22.78° C | 98% | 923.3 hPa | - | - | - | - |
| 1777410741 | 22.22° C | 98% | 923.2 hPa | - | - | - | - |
| 1777409840 | 21.67° C | 98% | 922.9 hPa | - | - | - | - |
| 1777408940 | 21.67° C | 98% | 922.7 hPa | - | - | - | - |
| 1777408040 | 21.67° C | 98% | 922.7 hPa | - | - | - | - |
| 1777407140 | 22.78° C | 98% | 922.6 hPa | - | - | - | - |
| 1777406240 | 22.22° C | 98% | 922.7 hPa | - | - | - | - |
| 1777405340 | 22.78° C | 98% | 922.5 hPa | - | - | - | - |
| 1777404440 | 23.33° C | 98% | 922.2 hPa | - | - | - | - |
* Rain since midnight (hover to see other rain measurements)
** Current wind speed in m/s (hover to see current wind gust speed)